This is the latest recevied weather packets stored in our database for station/object N5DGC. If no packets are shown the sender has not sent any weather packets the latest 10 day(s).
| Time | Temp. | Humidity | Pressure | Rain* | Wind** | Luminosity | Snow |
|---|---|---|---|---|---|---|---|
| 1787780520 | 35° C | 20% | 1241.7 hPa | 0 mm | - | 256 W/m² | - |
| 1787780216 | 35° C | 20% | 1241.6 hPa | 0 mm | - | 265 W/m² | - |
| 1787779912 | 35° C | 20% | 1241.6 hPa | 0 mm | - | 278 W/m² | - |
| 1787779606 | 35.56° C | 19% | 1241.8 hPa | 0 mm | - | 300 W/m² | - |
| 1787779306 | 35.56° C | 19% | 1241.9 hPa | 0 mm | - | 344 W/m² | - |
| 1787779000 | 36.11° C | 19% | 1241.7 hPa | 0 mm | - | 428 W/m² | - |
| 1787778696 | 36.11° C | 19% | 1242.1 hPa | 0 mm | - | 425 W/m² | - |
| 1787778392 | 36.11° C | 19% | 1242.3 hPa | 0 mm | - | 358 W/m² | - |
| 1787778087 | 36.67° C | 20% | 1242.3 hPa | 0 mm | - | 484 W/m² | - |
| 1787777786 | 36.11° C | 19% | 1242.2 hPa | 0 mm | - | 467 W/m² | - |
| 1787777483 | 36.11° C | 20% | 1242.7 hPa | 0 mm | - | 412 W/m² | - |
| 1787777183 | 35.56° C | 21% | 1242.3 hPa | 0 mm | - | 385 W/m² | - |
| 1787776882 | 35.56° C | 21% | 1242.8 hPa | 0 mm | - | 369 W/m² | - |
| 1787776581 | 36.11° C | 21% | 1242.8 hPa | 0 mm | - | 487 W/m² | - |
| 1787776280 | 36.67° C | 22% | 1242.8 hPa | 0 mm | - | 474 W/m² | - |
| 1787775979 | 37.22° C | 21% | 1242.8 hPa | 0 mm | - | 712 W/m² | - |
| 1787775674 | 36.11° C | 23% | 1242.8 hPa | 0 mm | - | 930 W/m² | - |
| 1787775372 | 36.67° C | 22% | 1242.9 hPa | 0 mm | - | 791 W/m² | - |
| 1787775067 | 36.67° C | 22% | 1242.9 hPa | 0 mm | - | 588 W/m² | - |
| 1787774766 | 36.11° C | 22% | 1243.1 hPa | 0 mm | - | 828 W/m² | - |
| 1787774461 | 35.56° C | 24% | 1243.1 hPa | 0 mm | - | 919 W/m² | - |
| 1787774160 | 36.67° C | 22% | 1243.2 hPa | 0 mm | - | 864 W/m² | - |
| 1787773858 | 36.11° C | 23% | 1243.4 hPa | 0 mm | - | 861 W/m² | - |
| 1787773558 | 35.56° C | 23% | 1243.4 hPa | 0 mm | - | 900 W/m² | - |
| 1787773254 | 35.56° C | 23% | 1243.8 hPa | 0 mm | - | 727 W/m² | - |
* Rain latest hour (hover to see other rain measurements)
** Current wind speed in m/s (hover to see current wind gust speed)